GW4240 Weather Reports


Display with metric or nautical units.
time (UTC)temp
F
wind
direction
speed
MPH
gust
MPH
rain 1hr
in
rain 24hr
in
rain mn
in
humidity
%
barometer
mb
20260901044026 63 285 2.0 5.0 0.00 0.00 0.00 88 1008.4
20260901043526 63 299 2.0 5.0 0.00 0.00 0.00 88 1008.3
20260901043057 63 300 3.0 6.0 0.00 0.00 0.00 88 1008.3
20260901042525 63 283 2.0 6.0 0.00 0.00 0.00 88 1008.3
20260901042025 63 288 3.0 6.0 0.00 0.00 0.00 88 1008.3
20260901041600 63 295 3.0 5.0 0.00 0.00 0.00 87 1008.5
20260901041027 63 299 2.0 4.0 0.00 0.00 0.00 87 1008.4
20260901040528 64 292 2.0 4.0 0.00 0.00 0.00 86 1008.5
20260901040047 64 297 0.0 4.0 0.00 0.00 0.00 86 1008.5
20260901035527 64 288 1.0 5.0 0.00 0.00 0.00 85 1008.5
20260901035026 64 285 1.0 5.0 0.00 0.00 0.00 85 1008.4
20260901034553 64 303 2.0 7.0 0.00 0.00 0.00 85 1008.3
20260901034025 64 297 4.0 7.0 0.00 0.00 0.00 84 1008.3
20260901033525 64 299 4.0 7.0 0.00 0.00 0.00 84 1008.2
20260901033049 64 300 4.0 7.0 0.00 0.00 0.00 83 1008.2
20260901032525 64 309 4.0 7.0 0.00 0.00 0.00 82 1008.3
20260901032026 65 298 4.0 7.0 0.00 0.00 0.00 81 1008.2
20260901031556 65 302 4.0 7.0 0.00 0.00 0.00 81 1008.2
20260901031027 65 283 4.0 8.0 0.00 0.00 0.00 80 1008.3
20260901030524 65 313 5.0 8.0 0.00 0.00 0.00 80 1008.3
20260901030048 65 335 5.0 8.0 0.00 0.00 0.00 80 1008.3
20260901025528 65 281 5.0 8.0 0.00 0.00 0.00 79 1008.4
20260901025029 65 317 4.0 7.0 0.00 0.00 0.00 79 1008.5
20260901024552 66 301 5.0 7.0 0.00 0.00 0.00 78 1008.5
20260901024025 66 286 5.0 8.0 0.00 0.00 0.00 77 1008.5
20260901023537 66 296 5.0 9.0 0.00 0.00 0.00 77 1008.4
20260901023047 66 306 5.0 9.0 0.00 0.00 0.00 76 1008.5
20260901022528 66 296 5.0 9.0 0.00 0.00 0.00 76 1008.6
20260901022030 67 291 7.0 9.0 0.00 0.00 0.00 74 1008.6
20260901021548 67 304 6.0 10.0 0.00 0.00 0.00 73 1008.7
20260901021027 67 295 7.0 10.0 0.00 0.00 0.00 71 1008.7
20260901020529 67 310 6.0 12.0 0.00 0.00 0.00 70 1008.7
20260901020056 68 274 8.0 12.0 0.00 0.00 0.00 69 1008.7
20260901015526 68 300 6.0 10.0 0.00 0.00 0.00 67 1008.8
20260901015025 68 304 6.0 10.0 0.00 0.00 0.00 67 1008.8
20260901014558 68 286 5.0 10.0 0.00 0.00 0.00 67 1008.9
20260901014025 68 295 6.0 10.0 0.00 0.00 0.00 67 1008.9
20260901013525 68 286 6.0 10.0 0.00 0.00 0.00 66 1008.8
20260901013049 68 308 6.0 10.0 0.00 0.00 0.00 67 1008.9
20260901012526 68 290 7.0 11.0 0.00 0.00 0.00 67 1009.0
20260901012029 69 314 6.0 11.0 0.00 0.00 0.00 68 1009.0
20260901011547 69 270 6.0 12.0 0.00 0.00 0.00 67 1009.0
20260901011030 69 305 6.0 12.0 0.00 0.00 0.00 67 1009.0
20260901010523 69 330 7.0 13.0 0.00 0.00 0.00 67 1009.1
20260901010051 69 288 8.0 13.0 0.00 0.00 0.00 67 1009.1
20260901005527 70 298 6.0 11.0 0.00 0.00 0.00 66 1009.2
20260901005025 69 303 5.0 11.0 0.00 0.00 0.00 68 1009.2
20260901004551 69 300 7.0 13.0 0.00 0.00 0.00 66 1009.1
20260901004024 69 288 8.0 13.0 0.00 0.00 0.00 67 1009.2
20260901003525 69 322 6.0 12.0 0.00 0.00 0.00 68 1009.3
20260901003045 69 288 7.0 12.0 0.00 0.00 0.00 70 1009.3
20260901002525 68 292 8.0 12.0 0.00 0.00 0.00 69 1009.4
20260901002026 68 286 7.0 12.0 0.00 0.00 0.00 69 1009.4
20260901001556 68 300 7.0 13.0 0.00 0.00 0.00 69 1009.4
20260901001025 68 281 7.0 13.0 0.00 0.00 0.00 69 1009.5
20260901000525 69 288 8.0 13.0 0.00 0.00 0.00 69 1009.6
20260901000051 69 290 7.0 13.0 0.00 0.00 0.00 68 1009.6
20260831235524 69 300 8.0 13.0 0.00 0.00 0.00 67 1009.6
20260831235025 69 297 8.0 13.0 0.00 0.00 0.00 68 1009.8
20260831234613 69 296 6.0 11.0 0.00 0.00 0.00 69 1009.8
20260831234026 69 325 7.0 11.0 0.00 0.00 0.00 68 1009.9
20260831233524 69 306 7.0 11.0 0.00 0.00 0.00 68 1010.0
20260831233054 69 298 6.0 11.0 0.00 0.00 0.00 68 1010.0
20260831232527 69 300 5.0 11.0 0.00 0.00 0.00 68 1010.0
20260831232025 69 278 6.0 11.0 0.00 0.00 0.00 69 1010.1
20260831231545 69 297 7.0 11.0 0.00 0.00 0.00 68 1010.2
20260831231026 70 266 6.0 11.0 0.00 0.00 0.00 68 1010.1
20260831230524 69 252 6.0 11.0 0.00 0.00 0.00 68 1010.2
20260831230054 69 282 7.0 11.0 0.00 0.00 0.00 69 1010.3
20260831225526 70 303 4.0 8.0 0.00 0.00 0.00 70 1010.3
20260831225026 70 300 4.0 12.0 0.00 0.00 0.00 69 1010.4
20260831224549 69 319 5.0 12.0 0.00 0.00 0.00 69 1010.3
20260831224025 69 290 6.0 11.0 0.00 0.00 0.00 70 1010.4
20260831223525 69 311 7.0 12.0 0.00 0.00 0.00 69 1010.6
20260831223047 69 275 8.0 12.0 0.00 0.00 0.00 69 1010.7
20260831222528 69 264 8.0 12.0 0.00 0.00 0.00 69 1010.7
20260831222025 69 281 7.0 11.0 0.00 0.00 0.00 69 1010.8
20260831221546 68 275 8.0 12.0 0.00 0.00 0.00 69 1010.8
20260831221028 68 272 7.0 13.0 0.00 0.00 0.00 70 1010.8
20260831220531 68 269 7.0 13.0 0.00 0.00 0.00 71 1011.0
20260831220053 68 262 7.0 15.0 0.00 0.00 0.00 70 1011.1
20260831215525 68 309 6.0 15.0 0.00 0.00 0.00 72 1011.2
20260831215030 68 296 9.0 14.0 0.00 0.00 0.00 71 1011.3
20260831214556 69 290 5.0 11.0 0.00 0.00 0.00 72 1011.4
20260831214024 68 288 5.0 11.0 0.00 0.00 0.00 74 1011.4
20260831213524 68 289 4.0 11.0 0.00 0.00 0.00 75 1011.5
20260831213046 68 294 6.0 12.0 0.00 0.00 0.00 75 1011.5
20260831212525 68 269 7.0 14.0 0.00 0.00 0.00 75 1011.5
20260831212025 67 285 7.0 14.0 0.00 0.00 0.00 75 1011.6
20260831211543 67 264 7.0 12.0 0.00 0.00 0.00 76 1011.6
20260831211027 67 297 6.0 11.0 0.00 0.00 0.00 76 1011.8
20260831210525 67 274 7.0 13.0 0.00 0.00 0.00 76 1011.8
20260831210048 67 304 8.0 13.0 0.00 0.00 0.00 77 1011.9
20260831205529 67 295 8.0 13.0 0.00 0.00 0.00 77 1011.9
20260831205026 67 311 8.0 13.0 0.00 0.00 0.00 77 1012.0
20260831204547 67 267 7.0 13.0 0.00 0.00 0.00 78 1012.0
20260831204029 67 293 7.0 13.0 0.00 0.00 0.00 77 1012.0
20260831203524 67 295 8.0 13.0 0.00 0.00 0.00 77 1012.2
20260831203047 67 271 6.0 12.0 0.00 0.00 0.00 77 1012.2
20260831202527 67 287 6.0 12.0 0.00 0.00 0.00 79 1012.3
20260831202026 67 297 6.0 13.0 0.00 0.00 0.00 78 1012.4
20260831201550 67 278 7.0 13.0 0.00 0.00 0.00 78 1012.4
20260831201028 67 283 6.0 10.0 0.00 0.00 0.00 79 1012.4
20260831200527 67 285 6.0 10.0 0.00 0.00 0.00 78 1012.5
20260831200048 66 299 6.0 11.0 0.00 0.00 0.00 79 1012.5
20260831195526 66 259 6.0 11.0 0.00 0.00 0.00 79 1012.5
20260831195025 66 271 6.0 11.0 0.00 0.00 0.00 78 1012.7
20260831194547 66 294 6.0 11.0 0.00 0.00 0.00 78 1012.7
20260831194030 66 283 7.0 11.0 0.00 0.00 0.00 77 1012.7
20260831193526 66 311 6.0 10.0 0.00 0.00 0.00 77 1012.9
20260831193044 66 296 6.0 10.0 0.00 0.00 0.00 77 1012.9
20260831192527 66 304 7.0 10.0 0.00 0.00 0.00 76 1013.0
20260831192029 66 302 5.0 10.0 0.00 0.00 0.00 76 1013.0
20260831191553 66 311 7.0 10.0 0.00 0.00 0.00 76 1013.0
20260831191026 66 311 5.0 9.0 0.00 0.00 0.00 75 1013.2
20260831190525 66 304 5.0 11.0 0.00 0.00 0.00 77 1013.2
20260831190050 66 297 6.0 11.0 0.00 0.00 0.00 75 1013.2
20260831185525 66 300 5.0 9.0 0.00 0.00 0.00 75 1013.2
20260831185027 66 289 5.0 8.0 0.00 0.00 0.00 75 1013.3
20260831184547 66 319 6.0 8.0 0.00 0.00 0.00 75 1013.4
20260831184025 66 282 3.0 9.0 0.00 0.00 0.00 76 1013.5
20260831183527 65 304 6.0 9.0 0.00 0.00 0.00 75 1013.6
20260831183046 65 309 4.0 8.0 0.00 0.00 0.00 75 1013.6
20260831182526 65 312 5.0 9.0 0.00 0.00 0.00 76 1013.6
20260831182027 65 292 5.0 9.0 0.00 0.00 0.00 76 1013.8
20260831181552 65 278 4.0 8.0 0.00 0.00 0.00 76 1013.9
20260831181026 65 301 2.0 9.0 0.00 0.00 0.00 76 1013.9
20260831180529 65 309 5.0 9.0 0.00 0.00 0.00 77 1013.9
20260831180050 65 326 5.0 8.0 0.00 0.00 0.00 75 1014.0
20260831175526 65 306 4.0 7.0 0.00 0.00 0.00 74 1014.1
20260831175029 66 315 3.0 7.0 0.00 0.00 0.00 73 1014.1
20260831174550 66 255 3.0 7.0 0.00 0.00 0.00 73 1014.1
20260831174027 66 276 1.0 5.0 0.00 0.00 0.00 78 1014.1
20260831173526 67 115 1.0 7.0 0.00 0.00 0.00 76 1014.2
20260831173050 66 288 1.0 7.0 0.00 0.00 0.00 73 1014.1
20260831172527 67 301 3.0 7.0 0.00 0.00 0.00 74 1014.3
20260831172027 67 141 2.0 5.0 0.00 0.00 0.00 78 1014.2
20260831171546 67 156 2.0 5.0 0.00 0.00 0.00 78 1014.3
20260831171027 66 255 2.0 5.0 0.00 0.00 0.00 79 1014.3
20260831170528 66 154 3.0 5.0 0.00 0.00 0.00 79 1014.1
20260831170121 66 141 2.0 5.0 0.00 0.00 0.00 79 1014.1
20260831165526 66 141 2.0 4.0 0.00 0.00 0.00 79 1014.1
20260831165026 66 147 1.0 4.0 0.00 0.00 0.00 80 1014.1
20260831164547 65 238 2.0 4.0 0.00 0.00 0.00 81 1014.2
20260831164024 64 148 2.0 3.0 0.00 0.00 0.00 80 1014.3
20260831163526 64 140 2.0 3.0 0.00 0.00 0.00 80 1014.3
20260831163049 64 130 2.0 4.0 0.00 0.00 0.00 80 1014.3
20260831162529 63 13 1.0 4.0 0.00 0.00 0.00 79 1014.3
20260831162027 63 12 1.0 5.0 0.00 0.00 0.00 80 1014.3
20260831161545 62 49 2.0 5.0 0.00 0.00 0.00 80 1014.4
20260831161028 62 4 3.0 5.0 0.00 0.00 0.00 81 1014.4
20260831160525 62 27 2.0 5.0 0.00 0.00 0.00 81 1014.3
20260831160056 62 335 2.0 5.0 0.00 0.00 0.00 80 1014.5
20260831155526 62 353 2.0 4.0 0.00 0.00 0.00 81 1014.5
20260831155023 62 30 2.0 5.0 0.00 0.00 0.00 82 1014.6
20260831154607 62 32 2.0 5.0 0.00 0.00 0.00 82 1014.6
20260831154029 62 47 2.0 5.0 0.00 0.00 0.00 83 1014.7
20260831153528 62 28 3.0 4.0 0.00 0.00 0.00 81 1014.6
20260831153047 63 0 0.0 1.0 0.00 0.00 0.00 84 1014.6
20260831152529 63 0 0.0 0.0 0.00 0.00 0.00 86 1014.6
20260831152026 63 0 0.0 0.0 0.00 0.00 0.00 87 1014.6
20260831151558 62 0 0.0 0.0 0.00 0.00 0.00 90 1014.6
20260831151025 61 0 0.0 0.0 0.00 0.00 0.00 91 1014.7
20260831150525 60 0 0.0 0.0 0.00 0.00 0.00 91 1014.6
20260831150054 60 0 0.0 0.0 0.00 0.00 0.00 93 1014.7
20260831145526 59 0 0.0 0.0 0.00 0.00 0.00 95 1014.6
20260831145028 58 0 0.0 0.0 0.00 0.00 0.00 96 1014.6
20260831144547 57 0 0.0 0.0 0.00 0.00 0.00 96 1014.6
20260831144025 55 0 0.0 0.0 0.00 0.00 0.00 96 1014.5
20260831143527 55 0 0.0 0.0 0.00 0.00 0.00 97 1014.5
20260831143050 54 0 0.0 0.0 0.00 0.00 0.00 96 1014.6
20260831142527 54 0 0.0 0.0 0.00 0.00 0.00 96 1014.5
20260831142027 53 0 0.0 0.0 0.00 0.00 0.00 97 1014.5
20260831141547 52 0 0.0 1.0 0.00 0.00 0.00 97 1014.6
20260831141025 52 0 0.0 1.0 0.00 0.00 0.00 96 1014.5
20260831140528 52 292 0.0 1.0 0.00 0.00 0.00 97 1014.5
20260831140050 52 0 0.0 1.0 0.00 0.00 0.00 97 1014.5
20260831135529 52 292 0.0 3.0 0.00 0.00 0.00 97 1014.5
20260831135031 51 290 1.0 3.0 0.00 0.00 0.00 96 1014.5
20260831134549 51 305 2.0 2.0 0.00 0.00 0.00 97 1014.5
20260831134025 51 311 0.0 0.0 0.00 0.00 0.00 96 1014.7
20260831133525 51 0 0.0 0.0 0.00 0.00 0.00 96 1014.6
20260831133048 51 0 0.0 0.0 0.00 0.00 0.00 97 1014.5
20260831132525 51 0 0.0 1.0 0.00 0.00 0.00 96 1014.6
20260831132028 51 0 0.0 1.0 0.00 0.00 0.00 96 1014.5
20260831131543 51 307 0.0 1.0 0.00 0.00 0.00 96 1014.7
20260831131028 51 307 1.0 2.0 0.00 0.00 0.00 96 1014.6
20260831130523 51 307 1.0 2.0 0.00 0.00 0.00 96 1014.7
20260831130052 51 309 1.0 2.0 0.00 0.00 0.00 96 1014.7
20260831125526 51 311 1.0 1.0 0.00 0.00 0.00 96 1014.7
20260831125026 51 302 1.0 1.0 0.00 0.00 0.00 96 1014.8
20260831124548 51 294 0.0 2.0 0.00 0.00 0.00 96 1014.9
20260831124026 51 307 1.0 2.0 0.00 0.00 0.00 96 1015.0
20260831123528 51 0 0.0 0.0 0.00 0.00 0.00 96 1015.1
20260831123047 51 0 0.0 0.0 0.00 0.00 0.00 96 1015.1
20260831122527 51 0 0.0 0.0 0.00 0.00 0.00 96 1015.0
20260831122027 51 0 0.0 0.0 0.00 0.00 0.00 95 1015.0
20260831121558 51 0 0.0 0.0 0.00 0.00 0.00 96 1015.1
20260831121026 51 0 0.0 0.0 0.00 0.00 0.00 96 1015.1
20260831120528 51 0 0.0 0.0 0.00 0.00 0.00 96 1015.1
20260831120054 51 0 0.0 0.0 0.00 0.00 0.00 96 1015.1
20260831115525 51 0 0.0 0.0 0.00 0.00 0.00 96 1015.0
20260831115025 51 0 0.0 0.0 0.00 0.00 0.00 96 1015.1
20260831114552 51 0 0.0 0.0 0.00 0.00 0.00 96 1015.3
20260831114025 51 0 0.0 0.0 0.00 0.00 0.00 96 1015.2
20260831113533 51 0 0.0 0.0 0.00 0.00 0.00 96 1015.2
20260831113048 51 0 0.0 0.0 0.00 0.00 0.00 95 1015.4
20260831112525 51 0 0.0 0.0 0.00 0.00 0.00 95 1015.4
20260831112026 51 0 0.0 0.0 0.00 0.00 0.00 96 1015.4
20260831111557 52 0 0.0 0.0 0.00 0.00 0.00 95 1015.4
20260831111027 52 0 0.0 0.0 0.00 0.00 0.00 96 1015.5
20260831110527 52 0 0.0 0.0 0.00 0.00 0.00 95 1015.5
20260831110059 52 0 0.0 0.0 0.00 0.00 0.00 95 1015.5
20260831105526 52 0 0.0 0.0 0.00 0.00 0.00 95 1015.6
20260831105025 52 0 0.0 0.0 0.00 0.00 0.00 95 1015.7
20260831104546 52 0 0.0 0.0 0.00 0.00 0.00 95 1015.7
20260831104026 52 0 0.0 0.0 0.00 0.00 0.00 95 1015.6
20260831103525 52 0 0.0 0.0 0.00 0.00 0.00 95 1015.7
20260831103047 52 0 0.0 0.0 0.00 0.00 0.00 95 1015.6
20260831102525 52 0 0.0 0.0 0.00 0.00 0.00 95 1015.6
20260831102027 52 0 0.0 0.0 0.00 0.00 0.00 95 1015.7
20260831101555 52 0 0.0 0.0 0.00 0.00 0.00 95 1015.7
20260831101025 52 0 0.0 0.0 0.00 0.00 0.00 95 1015.8
20260831100526 52 0 0.0 0.0 0.00 0.00 0.00 95 1015.9
20260831100050 53 0 0.0 0.0 0.00 0.00 0.00 95 1015.9
20260831095525 53 0 0.0 1.0 0.00 0.00 0.00 95 1016.0
20260831095027 52 0 0.0 2.0 0.00 0.00 0.00 94 1016.1
20260831094546 53 322 1.0 2.0 0.00 0.00 0.00 95 1016.1
20260831094028 53 305 0.0 1.0 0.00 0.00 0.00 95 1016.1
20260831093528 53 305 0.0 1.0 0.00 0.00 0.00 94 1016.2
20260831093045 53 0 0.0 0.0 0.00 0.00 0.00 95 1016.2
20260831092529 53 0 0.0 0.0 0.00 0.00 0.00 95 1016.2
20260831092025 53 0 0.0 0.0 0.00 0.00 0.00 94 1016.4
20260831091551 53 0 0.0 0.0 0.00 0.00 0.00 95 1016.4
20260831091026 53 0 0.0 0.0 0.00 0.00 0.00 95 1016.4
20260831090525 53 0 0.0 1.0 0.00 0.00 0.00 94 1016.5
20260831090052 53 0 0.0 1.0 0.00 0.00 0.00 94 1016.6
20260831085526 52 302 0.0 1.0 0.00 0.00 0.00 94 1016.5
20260831085027 52 0 0.0 1.0 0.00 0.00 0.00 94 1016.6
20260831084550 53 0 0.0 2.0 0.00 0.00 0.00 94 1016.6
20260831084029 53 314 0.0 2.0 0.00 0.00 0.00 94 1016.6
20260831083526 53 314 1.0 2.0 0.00 0.00 0.00 94 1016.7
20260831083055 53 314 1.0 2.0 0.00 0.00 0.00 94 1016.8
20260831082525 53 295 0.0 1.0 0.00 0.00 0.00 94 1016.9
20260831082024 53 0 0.0 1.0 0.00 0.00 0.00 94 1016.9
20260831081551 53 292 1.0 2.0 0.00 0.00 0.00 93 1017.0
20260831081025 53 292 1.0 2.0 0.00 0.00 0.00 93 1016.9
20260831080528 53 292 1.0 2.0 0.00 0.00 0.00 93 1016.9
20260831080049 53 288 1.0 2.0 0.00 0.00 0.00 93 1016.9
20260831075524 53 285 1.0 2.0 0.00 0.00 0.00 93 1017.1
20260831075029 53 0 0.0 0.0 0.00 0.00 0.00 93 1017.0
20260831074550 54 0 0.0 0.0 0.00 0.00 0.00 93 1017.1
20260831074025 54 0 0.0 0.0 0.00 0.00 0.00 93 1017.2
20260831073525 54 0 0.0 0.0 0.00 0.00 0.00 93 1017.2
20260831073049 54 0 0.0 0.0 0.00 0.00 0.00 93 1017.2
20260831072525 54 0 0.0 0.0 0.00 0.00 0.00 93 1017.2
20260831072025 54 0 0.0 0.0 0.00 0.00 0.00 93 1017.3
20260831071548 54 0 0.0 0.0 0.00 0.00 0.00 93 1017.4
20260831071025 54 0 0.0 0.0 0.00 0.00 0.00 92 1017.4
20260831070524 54 0 0.0 0.0 0.00 0.00 0.00 93 1017.4
20260831070050 54 0 0.0 0.0 0.00 0.00 0.00 92 1017.3
20260831065527 54 0 0.0 0.0 0.00 0.00 0.00 92 1017.3
20260831065025 54 0 0.0 0.0 0.00 0.00 0.00 92 1017.5
20260831064607 55 0 0.0 0.0 0.00 0.00 0.00 92 1017.3
20260831064024 55 0 0.0 0.0 0.00 0.00 0.00 92 1017.4
20260831063526 55 0 0.0 0.0 0.00 0.00 0.00 92 1017.5
20260831063048 55 0 0.0 0.0 0.00 0.00 0.00 92 1017.5
20260831062526 55 0 0.0 0.0 0.00 0.00 0.00 91 1017.6
20260831062027 55 0 0.0 0.0 0.00 0.00 0.00 91 1017.7
20260831061548 55 0 0.0 1.0 0.00 0.00 0.00 90 1017.7
20260831061029 55 0 0.0 1.0 0.00 0.00 0.00 90 1017.8
20260831060529 55 288 0.0 1.0 0.00 0.00 0.00 91 1017.8
20260831060049 55 287 1.0 2.0 0.00 0.00 0.00 91 1017.7
20260831055526 56 288 1.0 2.0 0.00 0.00 0.00 90 1017.8
20260831055029 56 288 0.0 2.0 0.00 0.00 0.00 90 1017.8
20260831054555 56 0 0.0 0.0 0.00 0.00 0.00 90 1017.8
20260831054026 56 0 0.0 0.0 0.00 0.00 0.00 90 1017.9
20260831053526 56 0 0.0 0.0 0.00 0.00 0.00 90 1018.0
20260831053050 56 0 0.0 1.0 0.00 0.00 0.00 89 1018.0
20260831052523 57 296 0.0 2.0 0.00 0.00 0.00 89 1018.0
20260831052027 57 296 1.0 2.0 0.00 0.00 0.00 88 1018.0
20260831051546 57 316 1.0 2.0 0.00 0.00 0.00 89 1018.1
20260831051025 57 316 1.0 2.0 0.00 0.00 0.00 88 1018.0
20260831050527 58 290 0.0 1.0 0.00 0.00 0.00 87 1018.2
20260831050055 58 290 1.0 1.0 0.00 0.00 0.00 87 1018.2
20260831045524 58 307 1.0 1.0 0.00 0.00 0.00 87 1018.3
20260831045025 58 307 0.0 1.0 0.00 0.00 0.00 86 1018.3
20260831044608 58 309 0.0 2.0 0.00 0.00 0.00 86 1018.3